Regional Weather Roundup
Issued by NWS Jackson, KY

Home | Current Version | Previous Version | Graphics & Text | Print | Product List | Glossary On
Versions: 1 2 3 4 5 6 7 8 9 10 11 12 13 14 15 16 17 18 19 20 21 22 23 24 25 26 27 28 29 30 31 32 33 34 35 36 37 38 39 40 41 42 43 44 45 46 47 48 49 50
503
ASUS43 KJKL 220210
RWRJKL

EAST KENTUCKY HOURLY WEATHER ROUNDUP
NATIONAL WEATHER SERVICE JACKSON KY
1000 PM EDT SAT APR 21 2018

NOTE: "FAIR" INDICATES FEW OR NO CLOUDS BELOW 12,000 FEET WITH
NO SIGNIFICANT WEATHER AND/OR OBSTRUCTIONS TO VISIBILITY.

* THESE REPORTS ARE NOT UNDER NWS QUALITY CONTROL AND MAY NOT
  REPORT WEATHER SUCH AS PRECIPITATION AND FOG.

KYZ079-080-083-085-087-088-110-112-115-119-120-220300
...EASTERN KENTUCKY...

CITY           SKY/WX    TMP DP  RH WIND       PRES   REMARKS
JACKSON          N/A     60  22  23 NE6       30.27R
LONDON           N/A     59  31  34 N8        30.25R
SOMERSET*        N/A     59  32  36 MISG      30.25R
MONTICELLO*      N/A     56  40  55 NW6       30.25R
WILLIAMSBURG*    N/A     61  32  33 CALM      30.25R
MIDDLESBORO*     N/A     55  42  63 CALM      30.25R
HARLAN APT*      N/A     58  33  38 CALM      30.25S
PIKE CO APT*     N/A     59  23  24 N9        30.27R
BIG SANDY APT*   N/A     59  23  24 NE9       30.28R
MOREHEAD APT*    N/A     59  16  18 E7G17     30.30R
ASHLAND*         N/A     57  27  31 N6        30.31R
$$

KYZ035-036-041-042-044-050-067-078-099-220300
...CENTRAL KENTUCKY...

CITY           SKY/WX    TMP DP  RH WIND       PRES   REMARKS
MT STERLING*     N/A     55  30  38 NE8       30.30R
FLEMING/MASON*   N/A     53  29  39 NE9       30.32R
DANVILLE*        N/A     54  34  47 CALM      30.27R
LEXINGTON        N/A     56  30  37 NE15      30.27R
FRANKFORT        N/A     59  25  27 NE7       30.27R
LOUISVILLE     CLOUDY    61  29  29 NE8       30.26R
GLASGOW*         N/A     60  36  41 NE5       30.23R
BOWLING GREEN    N/A     57  40  52 CALM      30.22R
$$

KYZ091>093-OHZ055-061-077-WVZ005-015-034-035-042-220300
...SOUTHERN OHIO/WEST VIRGINIA...

CITY           SKY/WX    TMP DP  RH WIND       PRES   REMARKS
COVINGTON      CLOUDY    54  21  27 NE9       30.33R
COLUMBUS       CLOUDY    52  22  30 NE7       30.35R
DAYTON         CLOUDY    48  27  44 NE8       30.37R
WILMINGTON       N/A     49  30  48 NE13      30.32S
HUNTINGTON       N/A     59  19  21 MISG      30.30R
CHARLESTON       N/A     58  20  22 NE7       30.29R
PINEVILLE*       N/A     48  34  58 MISG      30.32R
BECKLEY          N/A     56  18  22 NE5       30.30R
BLUEFIELD        N/A     55  26  32 S6        30.30R
LOGAN CO APT*    N/A     59  18  20 CALM      30.28R
$$

VAZ002-007-008-TNZ017-027-036-066-071-220300
...SOUTHWEST VIRGINIA/EAST TENNESSEE...

CITY           SKY/WX    TMP DP  RH WIND       PRES   REMARKS
WISE*            N/A     55  30  38 N5        30.30R
JONESVILLE*      N/A     55  36  47 CALM      30.27R
ABINGDON*        N/A     58  29  32 CALM      30.27R
BRISTOL        MOCLDY    56  38  50 CALM      30.26R
MORRISTOWN*    CLEAR     59  34  38 CALM      30.24R
SEVIERVILLE*   CLEAR     57  36  44 CALM      30.24R
KNOXVILLE      MOCLDY    63  36  36 CALM      30.23R
LAFOLLETTE*    CLEAR     54  39  58 CALM      30.28R
OAK RIDGE        N/A     58  41  53 CALM      30.25R
CROSSVILLE       N/A     57  30  35 CALM      30.26R
NASHVILLE      MOCLDY    66  32  28 CALM      30.20R
$$

...KEY TO REMARKS...
VSB - VISIBILITY IN MILES
WCI - WIND CHILL INDEX
HX  - HEAT INDEX

$$




USA.gov is the U.S. government's official web portal to all federal, state and local government web resources and services.